iso_date,epoch_date,Year,Hour,Min,DOY,POS_DOY,Lat,Lon,BP,Ts,Ta,has_bp,has_ts,has_ta,BuoyID,Buoy_Type,Buoy_Owner,Logistics,Hemisphere
2014-03-08T23:51:21Z,1394322682,2014,23,51,67.994,65.15,71.573,-153.0714,1018.0,0.5,-999.0,yes,yes,no,300234061363160,IceBall,USIABP,BeaCON,North
2014-03-09T00:00:00Z,1394323200,2014,0,0,68.0,68.0,71.573,-153.0714,1018.0,-0.6,-999.0,yes,yes,no,300234061363160,IceBall,USIABP,BeaCON,North
2014-03-09T01:00:28Z,1394326829,2014,1,0,68.042,68.0,71.573,-153.0714,1017.6,-18.1,-999.0,yes,yes,no,300234061363160,IceBall,USIABP,BeaCON,North
2014-03-09T01:59:31Z,1394330371,2014,2,0,68.083,68.0,71.573,-153.0714,1017.3,-15.6,-999.0,yes,yes,no,300234061363160,IceBall,USIABP,BeaCON,North
2014-03-09T03:00:00Z,1394334000,2014,3,0,68.125,68.125,71.573,-153.0712,1017.4,-17.8,-999.0,yes,yes,no,300234061363160,IceBall,USIABP,BeaCON,North
2014-03-09T04:00:28Z,1394337629,2014,4,0,68.167,68.125,71.573,-153.0712,1017.3,-19.1,-999.0,yes,yes,no,300234061363160,IceBall,USIABP,BeaCON,North
2014-03-09T04:59:31Z,1394341171,2014,5,0,68.208,68.125,71.573,-153.0712,1017.0,-21.3,-999.0,yes,yes,no,300234061363160,IceBall,USIABP,BeaCON,North
2014-03-09T06:00:00Z,1394344800,2014,6,0,68.25,68.25,71.573,-153.0712,1016.8,-21.8,-999.0,yes,yes,no,300234061363160,IceBall,USIABP,BeaCON,North
2014-03-09T07:00:28Z,1394348429,2014,7,0,68.292,68.25,71.573,-153.0712,1016.6,-22.1,-999.0,yes,yes,no,300234061363160,IceBall,USIABP,BeaCON,North
2014-03-09T07:59:31Z,1394351971,2014,8,0,68.333,68.25,71.573,-153.0712,1016.6,-21.8,-999.0,yes,yes,no,300234061363160,IceBall,USIABP,BeaCON,North
2014-03-09T09:00:00Z,1394355600,2014,9,0,68.375,68.375,71.573,-153.0712,1016.3,-22.3,-999.0,yes,yes,no,300234061363160,IceBall,USIABP,BeaCON,North
2014-03-09T10:00:28Z,1394359229,2014,10,0,68.417,68.375,71.573,-153.0712,1016.4,-23.0,-999.0,yes,yes,no,300234061363160,IceBall,USIABP,BeaCON,North
2014-03-09T10:59:31Z,1394362771,2014,11,0,68.458,68.375,71.573,-153.0712,1016.5,-22.6,-999.0,yes,yes,no,300234061363160,IceBall,USIABP,BeaCON,North
2014-03-09T12:00:00Z,1394366400,2014,12,0,68.5,68.5,71.573,-153.0714,1016.3,-23.9,-999.0,yes,yes,no,300234061363160,IceBall,USIABP,BeaCON,North
2014-03-09T13:00:28Z,1394370029,2014,13,0,68.542,68.5,71.573,-153.0714,1016.1,-23.6,-999.0,yes,yes,no,300234061363160,IceBall,USIABP,BeaCON,North
2014-03-09T13:59:31Z,1394373571,2014,14,0,68.583,68.5,71.573,-153.0714,1015.7,-23.6,-999.0,yes,yes,no,300234061363160,IceBall,USIABP,BeaCON,North
2014-03-09T15:00:00Z,1394377200,2014,15,0,68.625,68.625,71.573,-153.0714,1015.6,-23.3,-999.0,yes,yes,no,300234061363160,IceBall,USIABP,BeaCON,North
2014-03-09T16:00:28Z,1394380829,2014,16,0,68.667,68.625,71.573,-153.0714,1015.7,-24.2,-999.0,yes,yes,no,300234061363160,IceBall,USIABP,BeaCON,North
2014-03-09T16:59:31Z,1394384371,2014,17,0,68.708,68.625,71.573,-153.0714,1015.3,-25.3,-999.0,yes,yes,no,300234061363160,IceBall,USIABP,BeaCON,North
2014-03-09T18:00:00Z,1394388000,2014,18,0,68.75,68.75,71.573,-153.0714,1015.2,-24.3,-999.0,yes,yes,no,300234061363160,IceBall,USIABP,BeaCON,North
2014-03-09T19:00:28Z,1394391629,2014,19,0,68.792,68.75,71.573,-153.0714,1015.3,-14.7,-999.0,yes,yes,no,300234061363160,IceBall,USIABP,BeaCON,North
2014-03-09T19:59:31Z,1394395171,2014,20,0,68.833,68.75,71.573,-153.0714,1015.3,-12.6,-999.0,yes,yes,no,300234061363160,IceBall,USIABP,BeaCON,North
2014-03-09T21:00:00Z,1394398800,2014,21,0,68.875,68.875,71.573,-153.0714,1015.1,-18.6,-999.0,yes,yes,no,300234061363160,IceBall,USIABP,BeaCON,North
2014-03-09T22:00:28Z,1394402429,2014,22,0,68.917,68.875,71.573,-153.0714,1015.2,-8.1,-999.0,yes,yes,no,300234061363160,IceBall,USIABP,BeaCON,North
2014-03-09T22:59:31Z,1394405971,2014,23,0,68.958,68.875,71.573,-153.0714,1015.2,-7.7,-999.0,yes,yes,no,300234061363160,IceBall,USIABP,BeaCON,North
2014-03-10T00:00:00Z,1394409600,2014,0,0,69.0,69.0,71.573,-153.0714,1015.0,-9.8,-999.0,yes,yes,no,300234061363160,IceBall,USIABP,BeaCON,North
2014-03-10T01:00:28Z,1394413229,2014,1,0,69.042,69.0,71.573,-153.0714,1014.8,-12.3,-999.0,yes,yes,no,300234061363160,IceBall,USIABP,BeaCON,North
2014-03-10T01:59:31Z,1394416771,2014,2,0,69.083,69.0,71.573,-153.0714,1014.6,-14.8,-999.0,yes,yes,no,300234061363160,IceBall,USIABP,BeaCON,North
2014-03-10T03:00:00Z,1394420400,2014,3,0,69.125,69.125,71.573,-153.0714,1014.8,-19.9,-999.0,yes,yes,no,300234061363160,IceBall,USIABP,BeaCON,North
2014-03-10T04:00:28Z,1394424029,2014,4,0,69.167,69.125,71.573,-153.0714,1014.7,-22.5,-999.0,yes,yes,no,300234061363160,IceBall,USIABP,BeaCON,North
2014-03-10T04:59:31Z,1394427571,2014,5,0,69.208,69.125,71.573,-153.0714,1014.6,-23.7,-999.0,yes,yes,no,300234061363160,IceBall,USIABP,BeaCON,North
2014-03-10T06:00:00Z,1394431200,2014,6,0,69.25,69.25,71.573,-153.0714,1014.4,-25.2,-999.0,yes,yes,no,300234061363160,IceBall,USIABP,BeaCON,North
2014-03-10T07:00:28Z,1394434829,2014,7,0,69.292,69.25,71.573,-153.0714,1014.5,-26.2,-999.0,yes,yes,no,300234061363160,IceBall,USIABP,BeaCON,North
2014-03-10T07:59:31Z,1394438371,2014,8,0,69.333,69.25,71.573,-153.0714,1014.5,-27.1,-999.0,yes,yes,no,300234061363160,IceBall,USIABP,BeaCON,North
2014-03-10T09:00:00Z,1394442000,2014,9,0,69.375,69.375,71.573,-153.0716,1014.6,-27.4,-999.0,yes,yes,no,300234061363160,IceBall,USIABP,BeaCON,North
2014-03-10T10:00:28Z,1394445629,2014,10,0,69.417,69.375,71.573,-153.0716,1014.5,-28.2,-999.0,yes,yes,no,300234061363160,IceBall,USIABP,BeaCON,North
2014-03-10T10:59:31Z,1394449171,2014,11,0,69.458,69.375,71.573,-153.0716,1014.5,-28.3,-999.0,yes,yes,no,300234061363160,IceBall,USIABP,BeaCON,North
2014-03-10T12:00:00Z,1394452800,2014,12,0,69.5,69.5,71.573,-153.0714,1014.4,-28.6,-999.0,yes,yes,no,300234061363160,IceBall,USIABP,BeaCON,North
2014-03-10T13:00:28Z,1394456429,2014,13,0,69.542,69.5,71.573,-153.0714,1014.3,-29.2,-999.0,yes,yes,no,300234061363160,IceBall,USIABP,BeaCON,North
2014-03-10T13:59:31Z,1394459971,2014,14,0,69.583,69.5,71.573,-153.0714,1014.2,-28.7,-999.0,yes,yes,no,300234061363160,IceBall,USIABP,BeaCON,North
2014-03-10T15:00:00Z,1394463600,2014,15,0,69.625,69.625,71.573,-153.0714,1014.0,-27.7,-999.0,yes,yes,no,300234061363160,IceBall,USIABP,BeaCON,North
2014-03-10T16:00:28Z,1394467229,2014,16,0,69.667,69.625,71.573,-153.0714,1013.9,-28.2,-999.0,yes,yes,no,300234061363160,IceBall,USIABP,BeaCON,North
2014-03-10T16:59:31Z,1394470771,2014,17,0,69.708,69.625,71.573,-153.0714,1013.8,-28.6,-999.0,yes,yes,no,300234061363160,IceBall,USIABP,BeaCON,North
2014-03-10T18:00:00Z,1394474400,2014,18,0,69.75,69.75,71.573,-153.0714,1014.0,-22.6,-999.0,yes,yes,no,300234061363160,IceBall,USIABP,BeaCON,North
2014-03-10T19:00:28Z,1394478029,2014,19,0,69.792,69.75,71.573,-153.0714,1014.2,-14.0,-999.0,yes,yes,no,300234061363160,IceBall,USIABP,BeaCON,North
2014-03-10T19:59:31Z,1394481571,2014,20,0,69.833,69.75,71.573,-153.0714,1013.9,-12.2,-999.0,yes,yes,no,300234061363160,IceBall,USIABP,BeaCON,North
2014-03-10T21:00:00Z,1394485200,2014,21,0,69.875,69.875,71.573,-153.0714,1013.9,-13.1,-999.0,yes,yes,no,300234061363160,IceBall,USIABP,BeaCON,North
2014-03-10T22:00:28Z,1394488829,2014,22,0,69.917,69.875,71.573,-153.0714,1013.9,-12.8,-999.0,yes,yes,no,300234061363160,IceBall,USIABP,BeaCON,North
2014-03-10T22:59:31Z,1394492371,2014,23,0,69.958,69.875,71.573,-153.0714,1013.8,-17.2,-999.0,yes,yes,no,300234061363160,IceBall,USIABP,BeaCON,North
2014-03-11T00:00:00Z,1394496000,2014,0,0,70.0,70.0,71.573,-153.0716,1013.8,-17.4,-999.0,yes,yes,no,300234061363160,IceBall,USIABP,BeaCON,North
2014-03-11T01:00:28Z,1394499629,2014,1,0,70.042,70.0,71.573,-153.0716,1013.3,-21.5,-999.0,yes,yes,no,300234061363160,IceBall,USIABP,BeaCON,North
2014-03-11T01:59:31Z,1394503171,2014,2,0,70.083,70.0,71.573,-153.0716,1013.0,-19.7,-999.0,yes,yes,no,300234061363160,IceBall,USIABP,BeaCON,North
2014-03-11T03:00:00Z,1394506800,2014,3,0,70.125,70.125,71.573,-153.0714,1012.5,-23.1,-999.0,yes,yes,no,300234061363160,IceBall,USIABP,BeaCON,North
2014-03-11T04:00:28Z,1394510429,2014,4,0,70.167,70.125,71.573,-153.0714,1012.1,-26.6,-999.0,yes,yes,no,300234061363160,IceBall,USIABP,BeaCON,North
2014-03-11T04:59:31Z,1394513971,2014,5,0,70.208,70.125,71.573,-153.0714,1011.8,-27.3,-999.0,yes,yes,no,300234061363160,IceBall,USIABP,BeaCON,North
2014-03-11T06:00:00Z,1394517600,2014,6,0,70.25,70.25,71.573,-153.0724,1011.4,-27.7,-999.0,yes,yes,no,300234061363160,IceBall,USIABP,BeaCON,North
2014-03-11T07:00:28Z,1394521229,2014,7,0,70.292,70.25,71.573,-153.0724,1010.8,-28.1,-999.0,yes,yes,no,300234061363160,IceBall,USIABP,BeaCON,North
2014-03-11T07:59:31Z,1394524771,2014,8,0,70.333,70.25,71.573,-153.0724,1010.6,-28.2,-999.0,yes,yes,no,300234061363160,IceBall,USIABP,BeaCON,North
2014-03-11T09:00:00Z,1394528400,2014,9,0,70.375,70.375,71.5732,-153.083,1010.0,-28.5,-999.0,yes,yes,no,300234061363160,IceBall,USIABP,BeaCON,North
2014-03-11T10:00:28Z,1394532029,2014,10,0,70.417,70.375,71.5732,-153.083,1009.2,-28.6,-999.0,yes,yes,no,300234061363160,IceBall,USIABP,BeaCON,North
2014-03-11T10:59:31Z,1394535571,2014,11,0,70.458,70.375,71.5732,-153.083,1009.1,-28.7,-999.0,yes,yes,no,300234061363160,IceBall,USIABP,BeaCON,North
2014-03-11T12:00:00Z,1394539200,2014,12,0,70.5,70.5,71.5734,-153.1024,1009.0,-28.8,-999.0,yes,yes,no,300234061363160,IceBall,USIABP,BeaCON,North
2014-03-11T13:00:28Z,1394542829,2014,13,0,70.542,70.5,71.5734,-153.1024,1008.5,-28.3,-999.0,yes,yes,no,300234061363160,IceBall,USIABP,BeaCON,North
2014-03-11T13:59:31Z,1394546371,2014,14,0,70.583,70.5,71.5734,-153.1024,1007.3,-27.7,-999.0,yes,yes,no,300234061363160,IceBall,USIABP,BeaCON,North
2014-03-11T15:00:00Z,1394550000,2014,15,0,70.625,70.625,71.574,-153.133,1006.4,-27.6,-999.0,yes,yes,no,300234061363160,IceBall,USIABP,BeaCON,North
2014-03-11T16:00:28Z,1394553629,2014,16,0,70.667,70.625,71.574,-153.133,1006.0,-27.6,-999.0,yes,yes,no,300234061363160,IceBall,USIABP,BeaCON,North
2014-03-11T16:59:31Z,1394557171,2014,17,0,70.708,70.625,71.574,-153.133,1005.3,-27.2,-999.0,yes,yes,no,300234061363160,IceBall,USIABP,BeaCON,North
2014-03-11T18:00:00Z,1394560800,2014,18,0,70.75,70.75,71.574,-153.1744,1004.6,-26.8,-999.0,yes,yes,no,300234061363160,IceBall,USIABP,BeaCON,North
2014-03-11T19:00:28Z,1394564429,2014,19,0,70.792,70.75,71.574,-153.1744,1003.8,-25.5,-999.0,yes,yes,no,300234061363160,IceBall,USIABP,BeaCON,North
2014-03-11T19:59:31Z,1394567971,2014,20,0,70.833,70.75,71.574,-153.1744,1004.0,-24.8,-999.0,yes,yes,no,300234061363160,IceBall,USIABP,BeaCON,North
2014-03-11T21:00:00Z,1394571600,2014,21,0,70.875,70.875,71.5724,-153.2264,1003.7,-24.4,-999.0,yes,yes,no,300234061363160,IceBall,USIABP,BeaCON,North
2014-03-11T22:00:28Z,1394575229,2014,22,0,70.917,70.875,71.5724,-153.2264,1002.8,-24.3,-999.0,yes,yes,no,300234061363160,IceBall,USIABP,BeaCON,North
2014-03-11T22:59:31Z,1394578771,2014,23,0,70.958,70.875,71.5724,-153.2264,1002.3,-23.3,-999.0,yes,yes,no,300234061363160,IceBall,USIABP,BeaCON,North
2014-03-12T00:00:00Z,1394582400,2014,0,0,71.0,71.0,71.5686,-153.2864,1001.8,-22.9,-999.0,yes,yes,no,300234061363160,IceBall,USIABP,BeaCON,North
2014-03-12T01:00:28Z,1394586029,2014,1,0,71.042,71.0,71.5686,-153.2864,1001.2,-23.3,-999.0,yes,yes,no,300234061363160,IceBall,USIABP,BeaCON,North
2014-03-12T01:59:31Z,1394589571,2014,2,0,71.083,71.0,71.5686,-153.2864,1000.7,-23.1,-999.0,yes,yes,no,300234061363160,IceBall,USIABP,BeaCON,North
2014-03-12T03:00:00Z,1394593200,2014,3,0,71.125,71.125,71.564,-153.3508,1000.4,-22.9,-999.0,yes,yes,no,300234061363160,IceBall,USIABP,BeaCON,North
2014-03-12T04:00:28Z,1394596829,2014,4,0,71.167,71.125,71.564,-153.3508,1000.1,-22.9,-999.0,yes,yes,no,300234061363160,IceBall,USIABP,BeaCON,North
2014-03-12T04:59:31Z,1394600371,2014,5,0,71.208,71.125,71.564,-153.3508,999.9,-23.4,-999.0,yes,yes,no,300234061363160,IceBall,USIABP,BeaCON,North
2014-03-12T06:00:00Z,1394604000,2014,6,0,71.25,71.25,71.5598,-153.4134,999.4,-23.3,-999.0,yes,yes,no,300234061363160,IceBall,USIABP,BeaCON,North
2014-03-12T07:00:28Z,1394607629,2014,7,0,71.292,71.25,71.5598,-153.4134,999.6,-22.8,-999.0,yes,yes,no,300234061363160,IceBall,USIABP,BeaCON,North
2014-03-12T07:59:31Z,1394611171,2014,8,0,71.333,71.25,71.5598,-153.4134,999.1,-22.6,-999.0,yes,yes,no,300234061363160,IceBall,USIABP,BeaCON,North
2014-03-12T09:00:00Z,1394614800,2014,9,0,71.375,71.375,71.5568,-153.4674,999.1,-22.6,-999.0,yes,yes,no,300234061363160,IceBall,USIABP,BeaCON,North
2014-03-12T10:00:28Z,1394618429,2014,10,0,71.417,71.375,71.5568,-153.4674,998.9,-22.5,-999.0,yes,yes,no,300234061363160,IceBall,USIABP,BeaCON,North
2014-03-12T10:59:31Z,1394621971,2014,11,0,71.458,71.375,71.5568,-153.4674,999.0,-23.0,-999.0,yes,yes,no,300234061363160,IceBall,USIABP,BeaCON,North
2014-03-12T12:00:00Z,1394625600,2014,12,0,71.5,71.5,71.5546,-153.5068,998.9,-23.2,-999.0,yes,yes,no,300234061363160,IceBall,USIABP,BeaCON,North
2014-03-12T13:00:28Z,1394629229,2014,13,0,71.542,71.5,71.5546,-153.5068,998.7,-23.7,-999.0,yes,yes,no,300234061363160,IceBall,USIABP,BeaCON,North
2014-03-12T13:59:31Z,1394632771,2014,14,0,71.583,71.5,71.5546,-153.5068,998.7,-24.0,-999.0,yes,yes,no,300234061363160,IceBall,USIABP,BeaCON,North
2014-03-12T15:00:00Z,1394636400,2014,15,0,71.625,71.625,71.554,-153.5606,998.7,-24.1,-999.0,yes,yes,no,300234061363160,IceBall,USIABP,BeaCON,North
2014-03-12T16:00:28Z,1394640029,2014,16,0,71.667,71.625,71.554,-153.5606,998.6,-23.6,-999.0,yes,yes,no,300234061363160,IceBall,USIABP,BeaCON,North
2014-03-12T16:59:31Z,1394643571,2014,17,0,71.708,71.625,71.554,-153.5606,998.5,-23.8,-999.0,yes,yes,no,300234061363160,IceBall,USIABP,BeaCON,North
2014-03-12T18:00:00Z,1394647200,2014,18,0,71.75,71.75,71.5562,-153.6182,998.6,-22.7,-999.0,yes,yes,no,300234061363160,IceBall,USIABP,BeaCON,North
2014-03-12T19:00:28Z,1394650829,2014,19,0,71.792,71.75,71.5562,-153.6182,998.9,-21.2,-999.0,yes,yes,no,300234061363160,IceBall,USIABP,BeaCON,North
2014-03-12T19:59:31Z,1394654371,2014,20,0,71.833,71.75,71.5562,-153.6182,999.0,-19.9,-999.0,yes,yes,no,300234061363160,IceBall,USIABP,BeaCON,North
2014-03-12T21:00:00Z,1394658000,2014,21,0,71.875,71.875,71.5554,-153.651,999.5,-18.9,-999.0,yes,yes,no,300234061363160,IceBall,USIABP,BeaCON,North
2014-03-12T22:00:28Z,1394661629,2014,22,0,71.917,71.875,71.5554,-153.651,999.8,-15.9,-999.0,yes,yes,no,300234061363160,IceBall,USIABP,BeaCON,North
2014-03-12T22:59:31Z,1394665171,2014,23,0,71.958,71.875,71.5554,-153.651,1000.2,-14.1,-999.0,yes,yes,no,300234061363160,IceBall,USIABP,BeaCON,North
2014-03-13T00:00:00Z,1394668800,2014,0,0,72.0,72.0,71.5552,-153.6694,1000.4,-16.1,-999.0,yes,yes,no,300234061363160,IceBall,USIABP,BeaCON,North
2014-03-13T01:00:28Z,1394672429,2014,1,0,72.042,72.0,71.5552,-153.6694,1000.7,-16.4,-999.0,yes,yes,no,300234061363160,IceBall,USIABP,BeaCON,North
2014-03-13T01:59:31Z,1394675971,2014,2,0,72.083,72.0,71.5552,-153.6694,1000.8,-18.0,-999.0,yes,yes,no,300234061363160,IceBall,USIABP,BeaCON,North
2014-03-13T03:00:00Z,1394679600,2014,3,0,72.125,72.125,71.5548,-153.6732,1001.3,-19.6,-999.0,yes,yes,no,300234061363160,IceBall,USIABP,BeaCON,North
2014-03-13T04:00:28Z,1394683229,2014,4,0,72.167,72.125,71.5548,-153.6732,1001.5,-21.0,-999.0,yes,yes,no,300234061363160,IceBall,USIABP,BeaCON,North
2014-03-13T04:59:31Z,1394686771,2014,5,0,72.208,72.125,71.5548,-153.6732,1001.6,-21.4,-999.0,yes,yes,no,300234061363160,IceBall,USIABP,BeaCON,North
2014-03-13T06:00:00Z,1394690400,2014,6,0,72.25,72.25,71.5548,-153.673,1001.6,-21.9,-999.0,yes,yes,no,300234061363160,IceBall,USIABP,BeaCON,North
2014-03-13T07:00:28Z,1394694029,2014,7,0,72.292,72.25,71.5548,-153.673,1002.0,-22.3,-999.0,yes,yes,no,300234061363160,IceBall,USIABP,BeaCON,North
2014-03-13T07:59:31Z,1394697571,2014,8,0,72.333,72.25,71.5548,-153.673,1002.2,-20.2,-999.0,yes,yes,no,300234061363160,IceBall,USIABP,BeaCON,North
2014-03-13T09:00:00Z,1394701200,2014,9,0,72.375,72.375,71.555,-153.6732,1002.2,-19.3,-999.0,yes,yes,no,300234061363160,IceBall,USIABP,BeaCON,North
2014-03-13T10:00:28Z,1394704829,2014,10,0,72.417,72.375,71.555,-153.6732,1002.5,-18.7,-999.0,yes,yes,no,300234061363160,IceBall,USIABP,BeaCON,North
2014-03-13T10:59:31Z,1394708371,2014,11,0,72.458,72.375,71.555,-153.6732,1002.6,-18.3,-999.0,yes,yes,no,300234061363160,IceBall,USIABP,BeaCON,North
2014-03-13T12:00:00Z,1394712000,2014,12,0,72.5,72.5,71.555,-153.6732,1002.3,-18.0,-999.0,yes,yes,no,300234061363160,IceBall,USIABP,BeaCON,North
2014-03-13T13:00:28Z,1394715629,2014,13,0,72.542,72.5,71.555,-153.6732,1002.4,-18.0,-999.0,yes,yes,no,300234061363160,IceBall,USIABP,BeaCON,North
2014-03-13T13:59:31Z,1394719171,2014,14,0,72.583,72.5,71.555,-153.6732,1002.7,-18.7,-999.0,yes,yes,no,300234061363160,IceBall,USIABP,BeaCON,North
2014-03-13T15:00:00Z,1394722800,2014,15,0,72.625,72.625,71.5548,-153.6732,1002.8,-18.9,-999.0,yes,yes,no,300234061363160,IceBall,USIABP,BeaCON,North
2014-03-13T16:00:28Z,1394726429,2014,16,0,72.667,72.625,71.5548,-153.6732,1002.8,-18.9,-999.0,yes,yes,no,300234061363160,IceBall,USIABP,BeaCON,North
2014-03-13T16:59:31Z,1394729971,2014,17,0,72.708,72.625,71.5548,-153.6732,1002.6,-19.1,-999.0,yes,yes,no,300234061363160,IceBall,USIABP,BeaCON,North
2014-03-13T18:00:00Z,1394733600,2014,18,0,72.75,72.75,71.555,-153.6732,1002.6,-18.8,-999.0,yes,yes,no,300234061363160,IceBall,USIABP,BeaCON,North
2014-03-13T19:00:28Z,1394737229,2014,19,0,72.792,72.75,71.555,-153.6732,1002.5,-17.9,-999.0,yes,yes,no,300234061363160,IceBall,USIABP,BeaCON,North
2014-03-13T19:59:31Z,1394740771,2014,20,0,72.833,72.75,71.555,-153.6732,1002.0,-16.9,-999.0,yes,yes,no,300234061363160,IceBall,USIABP,BeaCON,North
2014-03-13T21:00:00Z,1394744400,2014,21,0,72.875,72.875,71.555,-153.6732,1002.1,-16.1,-999.0,yes,yes,no,300234061363160,IceBall,USIABP,BeaCON,North
2014-03-13T22:00:28Z,1394748029,2014,22,0,72.917,72.875,71.555,-153.6732,1002.0,-16.2,-999.0,yes,yes,no,300234061363160,IceBall,USIABP,BeaCON,North
2014-03-13T22:59:31Z,1394751571,2014,23,0,72.958,72.875,71.555,-153.6732,1001.7,-16.0,-999.0,yes,yes,no,300234061363160,IceBall,USIABP,BeaCON,North
2014-03-14T00:00:00Z,1394755200,2014,0,0,73.0,73.0,71.555,-153.6732,1001.5,-16.8,-999.0,yes,yes,no,300234061363160,IceBall,USIABP,BeaCON,North
2014-03-14T01:00:28Z,1394758829,2014,1,0,73.042,73.0,71.555,-153.6732,1001.0,-16.7,-999.0,yes,yes,no,300234061363160,IceBall,USIABP,BeaCON,North
2014-03-14T01:59:31Z,1394762371,2014,2,0,73.083,73.0,71.555,-153.6732,1001.0,-17.7,-999.0,yes,yes,no,300234061363160,IceBall,USIABP,BeaCON,North
2014-03-14T03:00:00Z,1394766000,2014,3,0,73.125,73.125,71.5548,-153.6732,1000.3,-17.5,-999.0,yes,yes,no,300234061363160,IceBall,USIABP,BeaCON,North
2014-03-14T04:00:28Z,1394769629,2014,4,0,73.167,73.125,71.5548,-153.6732,1000.3,-17.6,-999.0,yes,yes,no,300234061363160,IceBall,USIABP,BeaCON,North
2014-03-14T04:59:31Z,1394773171,2014,5,0,73.208,73.125,71.5548,-153.6732,1000.5,-17.7,-999.0,yes,yes,no,300234061363160,IceBall,USIABP,BeaCON,North
2014-03-14T06:00:00Z,1394776800,2014,6,0,73.25,73.25,71.555,-153.6732,999.8,-17.4,-999.0,yes,yes,no,300234061363160,IceBall,USIABP,BeaCON,North
2014-03-14T07:00:28Z,1394780429,2014,7,0,73.292,73.25,71.555,-153.6732,999.5,-17.4,-999.0,yes,yes,no,300234061363160,IceBall,USIABP,BeaCON,North
2014-03-14T07:59:31Z,1394783971,2014,8,0,73.333,73.25,71.555,-153.6732,999.3,-16.5,-999.0,yes,yes,no,300234061363160,IceBall,USIABP,BeaCON,North
2014-03-14T09:00:00Z,1394787600,2014,9,0,73.375,73.375,71.555,-153.6732,999.2,-16.4,-999.0,yes,yes,no,300234061363160,IceBall,USIABP,BeaCON,North
2014-03-14T10:00:28Z,1394791229,2014,10,0,73.417,73.375,71.555,-153.6732,999.6,-16.5,-999.0,yes,yes,no,300234061363160,IceBall,USIABP,BeaCON,North
2014-03-14T10:59:31Z,1394794771,2014,11,0,73.458,73.375,71.555,-153.6732,998.8,-16.3,-999.0,yes,yes,no,300234061363160,IceBall,USIABP,BeaCON,North
2014-03-14T12:00:00Z,1394798400,2014,12,0,73.5,73.5,71.555,-153.6732,999.0,-16.6,-999.0,yes,yes,no,300234061363160,IceBall,USIABP,BeaCON,North
2014-03-14T13:00:28Z,1394802029,2014,13,0,73.542,73.5,71.555,-153.6732,999.2,-16.4,-999.0,yes,yes,no,300234061363160,IceBall,USIABP,BeaCON,North
2014-03-14T13:59:31Z,1394805571,2014,14,0,73.583,73.5,71.555,-153.6732,999.0,-16.0,-999.0,yes,yes,no,300234061363160,IceBall,USIABP,BeaCON,North
2014-03-14T15:00:00Z,1394809200,2014,15,0,73.625,73.625,71.555,-153.6732,998.8,-16.5,-999.0,yes,yes,no,300234061363160,IceBall,USIABP,BeaCON,North
2014-03-14T16:00:28Z,1394812829,2014,16,0,73.667,73.625,71.555,-153.6732,998.5,-17.3,-999.0,yes,yes,no,300234061363160,IceBall,USIABP,BeaCON,North
2014-03-14T16:59:31Z,1394816371,2014,17,0,73.708,73.625,71.555,-153.6732,998.8,-17.6,-999.0,yes,yes,no,300234061363160,IceBall,USIABP,BeaCON,North
2014-03-14T18:00:00Z,1394820000,2014,18,0,73.75,73.75,71.555,-153.6732,999.1,-13.8,-999.0,yes,yes,no,300234061363160,IceBall,USIABP,BeaCON,North
2014-03-14T19:00:28Z,1394823629,2014,19,0,73.792,73.75,71.555,-153.6732,998.9,-14.6,-999.0,yes,yes,no,300234061363160,IceBall,USIABP,BeaCON,North
2014-03-14T19:59:31Z,1394827171,2014,20,0,73.833,73.75,71.555,-153.6732,998.8,-13.6,-999.0,yes,yes,no,300234061363160,IceBall,USIABP,BeaCON,North
2014-03-14T21:00:00Z,1394830800,2014,21,0,73.875,73.875,71.555,-153.6732,998.8,-13.4,-999.0,yes,yes,no,300234061363160,IceBall,USIABP,BeaCON,North
2014-03-14T22:00:28Z,1394834429,2014,22,0,73.917,73.875,71.555,-153.6732,998.8,-12.6,-999.0,yes,yes,no,300234061363160,IceBall,USIABP,BeaCON,North
2014-03-14T22:59:31Z,1394837971,2014,23,0,73.958,73.875,71.555,-153.6732,998.9,-13.1,-999.0,yes,yes,no,300234061363160,IceBall,USIABP,BeaCON,North
2014-03-15T00:00:00Z,1394841600,2014,0,0,74.0,74.0,71.555,-153.6732,998.6,-12.5,-999.0,yes,yes,no,300234061363160,IceBall,USIABP,BeaCON,North
2014-03-15T01:00:28Z,1394845229,2014,1,0,74.042,74.0,71.555,-153.6732,998.4,-14.0,-999.0,yes,yes,no,300234061363160,IceBall,USIABP,BeaCON,North
2014-03-15T01:59:31Z,1394848771,2014,2,0,74.083,74.0,71.555,-153.6732,997.9,-14.8,-999.0,yes,yes,no,300234061363160,IceBall,USIABP,BeaCON,North
2014-03-15T03:00:00Z,1394852400,2014,3,0,74.125,74.125,71.555,-153.6732,997.9,-15.7,-999.0,yes,yes,no,300234061363160,IceBall,USIABP,BeaCON,North
2014-03-15T04:00:28Z,1394856029,2014,4,0,74.167,74.125,71.555,-153.6732,997.8,-16.6,-999.0,yes,yes,no,300234061363160,IceBall,USIABP,BeaCON,North
2014-03-15T04:59:31Z,1394859571,2014,5,0,74.208,74.125,71.555,-153.6732,997.7,-17.4,-999.0,yes,yes,no,300234061363160,IceBall,USIABP,BeaCON,North
2014-03-15T06:00:00Z,1394863200,2014,6,0,74.25,74.25,71.555,-153.6732,997.6,-17.5,-999.0,yes,yes,no,300234061363160,IceBall,USIABP,BeaCON,North
2014-03-15T07:00:28Z,1394866829,2014,7,0,74.292,74.25,71.555,-153.6732,997.6,-18.2,-999.0,yes,yes,no,300234061363160,IceBall,USIABP,BeaCON,North
2014-03-15T07:59:31Z,1394870371,2014,8,0,74.333,74.25,71.555,-153.6732,997.7,-18.6,-999.0,yes,yes,no,300234061363160,IceBall,USIABP,BeaCON,North
2014-03-15T09:00:00Z,1394874000,2014,9,0,74.375,74.375,71.555,-153.6732,997.4,-18.5,-999.0,yes,yes,no,300234061363160,IceBall,USIABP,BeaCON,North
2014-03-15T10:00:28Z,1394877629,2014,10,0,74.417,74.375,71.555,-153.6732,997.3,-18.7,-999.0,yes,yes,no,300234061363160,IceBall,USIABP,BeaCON,North
2014-03-15T10:59:31Z,1394881171,2014,11,0,74.458,74.375,71.555,-153.6732,997.3,-18.9,-999.0,yes,yes,no,300234061363160,IceBall,USIABP,BeaCON,North
2014-03-15T12:00:00Z,1394884800,2014,12,0,74.5,74.5,71.555,-153.6732,997.1,-19.2,-999.0,yes,yes,no,300234061363160,IceBall,USIABP,BeaCON,North
2014-03-15T13:00:28Z,1394888429,2014,13,0,74.542,74.5,71.555,-153.6732,996.9,-19.2,-999.0,yes,yes,no,300234061363160,IceBall,USIABP,BeaCON,North
2014-03-15T13:59:31Z,1394891971,2014,14,0,74.583,74.5,71.555,-153.6732,997.0,-18.8,-999.0,yes,yes,no,300234061363160,IceBall,USIABP,BeaCON,North
2014-03-15T15:00:00Z,1394895600,2014,15,0,74.625,74.625,71.555,-153.6732,996.8,-18.2,-999.0,yes,yes,no,300234061363160,IceBall,USIABP,BeaCON,North
2014-03-15T16:00:28Z,1394899229,2014,16,0,74.667,74.625,71.555,-153.6732,996.4,-17.9,-999.0,yes,yes,no,300234061363160,IceBall,USIABP,BeaCON,North
2014-03-15T16:59:31Z,1394902771,2014,17,0,74.708,74.625,71.555,-153.6732,996.2,-17.8,-999.0,yes,yes,no,300234061363160,IceBall,USIABP,BeaCON,North